Wetterdaten: Donnerstag, 13.03.2014
Datum Zeit Temperatur Luftfeuchte Luftdruck Regen Wind Richtung Richtung Taupunkt Windchill Windben
13.03.2014 00:00 -0,9 C 82 % 1027,1 hPa 0,0 l/m 0,0 km/h (0 Bft) N-NW 337 -3,6 C 19,2 C 0,0 km/h (0 Bft)
13.03.2014 00:05 -1,1 C 82 % 1027,1 hPa 0,0 l/m 0,0 km/h (0 Bft) N-NW 337 -3,8 C 19,2 C 0,0 km/h (0 Bft)
13.03.2014 00:10 -1,1 C 82 % 1026,9 hPa 0,0 l/m 0,0 km/h (0 Bft) N-NW 337 -3,8 C 19,2 C 0,0 km/h (0 Bft)
13.03.2014 00:15 -1,2 C 82 % 1026,9 hPa 0,0 l/m 0,0 km/h (0 Bft) N-NW 337 -3,9 C 19,2 C 0,0 km/h (0 Bft)
13.03.2014 00:20 -1,1 C 82 % 1026,9 hPa 0,0 l/m 0,0 km/h (0 Bft) N-NW 337 -3,8 C 19,2 C 0,0 km/h (0 Bft)
13.03.2014 00:25 -1,1 C 83 % 1026,9 hPa 0,0 l/m 0,0 km/h (0 Bft) N-NW 337 -3,6 C 19,2 C 0,0 km/h (0 Bft)
13.03.2014 00:30 -1,3 C 83 % 1026,8 hPa 0,0 l/m 0,0 km/h (0 Bft) N-NW 337 -3,8 C 19,2 C 0,0 km/h (0 Bft)
13.03.2014 00:35 -1,3 C 83 % 1026,8 hPa 0,0 l/m 0,0 km/h (0 Bft) N-NW 337 -3,8 C 19,2 C 0,0 km/h (0 Bft)
13.03.2014 00:40 -1,3 C 83 % 1026,8 hPa 0,0 l/m 0,0 km/h (0 Bft) N-NW 337 -3,8 C 19,2 C 0,0 km/h (0 Bft)
13.03.2014 00:45 -1,3 C 83 % 1026,8 hPa 0,0 l/m 0,0 km/h (0 Bft) N-NW 337 -3,8 C 19,2 C 0,0 km/h (0 Bft)
13.03.2014 00:50 -1,4 C 83 % 1026,8 hPa 0,0 l/m 0,0 km/h (0 Bft) N-NW 337 -3,9 C 19,2 C 0,0 km/h (0 Bft)
13.03.2014 00:55 -1,5 C 83 % 1026,8 hPa 0,0 l/m 0,0 km/h (0 Bft) N-NW 337 -4,0 C 19,2 C 0,0 km/h (0 Bft)
13.03.2014 01:00 -1,8 C 83 % 1026,8 hPa 0,0 l/m 0,0 km/h (0 Bft) N-NW 337 -4,3 C 19,2 C 0,0 km/h (0 Bft)
13.03.2014 01:05 -1,7 C 83 % 1026,8 hPa 0,0 l/m 0,0 km/h (0 Bft) N-NW 337 -4,2 C 19,2 C 0,0 km/h (0 Bft)
13.03.2014 01:10 -1,7 C 84 % 1026,9 hPa 0,0 l/m 0,0 km/h (0 Bft) N-NW 337 -4,0 C 19,2 C 0,0 km/h (0 Bft)
13.03.2014 01:15 -1,7 C 84 % 1026,9 hPa 0,0 l/m 0,0 km/h (0 Bft) N-NW 337 -4,0 C 19,2 C 0,0 km/h (0 Bft)
13.03.2014 01:20 -1,3 C 85 % 1026,9 hPa 0,0 l/m 0,0 km/h (0 Bft) N-NW 337 -3,5 C 19,2 C 0,0 km/h (0 Bft)
13.03.2014 01:25 -1,4 C 85 % 1026,9 hPa 0,0 l/m 0,0 km/h (0 Bft) N-NW 337 -3,6 C 19,2 C 0,0 km/h (0 Bft)
13.03.2014 01:30 -0,9 C 86 % 1026,7 hPa 0,0 l/m 2,9 km/h (1 Bft) NO 45 -2,9 C -1,7 C 0,0 km/h (0 Bft)
13.03.2014 01:35 -1,1 C 86 % 1026,7 hPa 0,0 l/m 2,9 km/h (1 Bft) NO 45 -3,1 C -1,7 C 0,0 km/h (0 Bft)
13.03.2014 01:40 -1,7 C 86 % 1026,7 hPa 0,0 l/m 2,9 km/h (1 Bft) NO 45 -3,7 C -1,7 C 0,0 km/h (0 Bft)
13.03.2014 01:45 -1,9 C 85 % 1026,7 hPa 0,0 l/m 2,9 km/h (1 Bft) NO 45 -4,1 C -1,7 C 0,0 km/h (0 Bft)
13.03.2014 01:50 -2,2 C 85 % 1026,6 hPa 0,0 l/m 0,0 km/h (0 Bft) NO 45 -4,4 C -1,7 C 0,0 km/h (0 Bft)
13.03.2014 01:55 -2,1 C 85 % 1026,6 hPa 0,0 l/m 0,0 km/h (0 Bft) NO 45 -4,3 C -1,7 C 0,0 km/h (0 Bft)
13.03.2014 02:00 -2,0 C 85 % 1026,6 hPa 0,0 l/m 0,0 km/h (0 Bft) NO 45 -4,2 C -1,7 C 0,0 km/h (0 Bft)
13.03.2014 02:05 -1,6 C 86 % 1026,6 hPa 0,0 l/m 0,0 km/h (0 Bft) NO 45 -3,6 C -1,7 C 0,0 km/h (0 Bft)
13.03.2014 02:10 -2,0 C 85 % 1026,6 hPa 0,0 l/m 0,0 km/h (0 Bft) NO 45 -4,2 C -1,7 C 0,0 km/h (0 Bft)
13.03.2014 02:15 -2,0 C 86 % 1026,6 hPa 0,0 l/m 0,0 km/h (0 Bft) NO 45 -4,0 C -1,7 C 0,0 km/h (0 Bft)
13.03.2014 02:20 -2,0 C 86 % 1026,6 hPa 0,0 l/m 0,0 km/h (0 Bft) NO 45 -4,0 C -1,7 C 0,0 km/h (0 Bft)
13.03.2014 02:25 -0,7 C 87 % 1026,6 hPa 0,0 l/m 0,0 km/h (0 Bft) NO 45 -2,6 C -1,7 C 0,0 km/h (0 Bft)
13.03.2014 02:30 0,1 C 88 % 1026,2 hPa 0,0 l/m 0,0 km/h (0 Bft) NO 45 -1,6 C -1,7 C 0,0 km/h (0 Bft)
13.03.2014 02:35 0,3 C 88 % 1026,2 hPa 0,0 l/m 0,0 km/h (0 Bft) NO 45 -1,4 C -1,7 C 0,0 km/h (0 Bft)
13.03.2014 02:40 0,1 C 87 % 1026,2 hPa 0,0 l/m 0,0 km/h (0 Bft) NO 45 -1,8 C -1,7 C 0,0 km/h (0 Bft)
13.03.2014 02:45 0,5 C 88 % 1026,2 hPa 0,0 l/m 0,0 km/h (0 Bft) NO 45 -1,3 C -1,7 C 0,0 km/h (0 Bft)
13.03.2014 02:50 -0,6 C 86 % 1026,2 hPa 0,0 l/m 0,0 km/h (0 Bft) NO 45 -2,6 C -1,7 C 0,0 km/h (0 Bft)
13.03.2014 02:55 -1,0 C 85 % 1026,2 hPa 0,0 l/m 0,0 km/h (0 Bft) NO 45 -3,2 C -1,7 C 0,0 km/h (0 Bft)
13.03.2014 03:00 -1,6 C 85 % 1026,2 hPa 0,0 l/m 0,0 km/h (0 Bft) NO 45 -3,8 C -1,7 C 0,0 km/h (0 Bft)
13.03.2014 03:05 -1,6 C 85 % 1026,2 hPa 0,0 l/m 0,0 km/h (0 Bft) NO 45 -3,8 C -1,7 C 0,0 km/h (0 Bft)
13.03.2014 03:10 -1,9 C 84 % 1026,1 hPa 0,0 l/m 0,0 km/h (0 Bft) NO 45 -4,2 C -1,7 C 0,0 km/h (0 Bft)
13.03.2014 03:15 -2,0 C 85 % 1026,1 hPa 0,0 l/m 0,0 km/h (0 Bft) NO 45 -4,2 C -1,7 C 0,0 km/h (0 Bft)
13.03.2014 03:20 -2,0 C 85 % 1026,1 hPa 0,0 l/m 0,0 km/h (0 Bft) NO 45 -4,2 C -1,7 C 0,0 km/h (0 Bft)
13.03.2014 03:25 -2,2 C 85 % 1026,1 hPa 0,0 l/m 0,0 km/h (0 Bft) NO 45 -4,4 C -1,7 C 0,0 km/h (0 Bft)
13.03.2014 03:30 -2,2 C 85 % 1025,9 hPa 0,0 l/m 0,0 km/h (0 Bft) NO 45 -4,4 C -1,7 C 0,0 km/h (0 Bft)
13.03.2014 03:35 -2,3 C 85 % 1025,9 hPa 0,0 l/m 0,0 km/h (0 Bft) NO 45 -4,5 C -1,7 C 0,0 km/h (0 Bft)
13.03.2014 03:40 -2,4 C 85 % 1025,9 hPa 0,0 l/m 0,0 km/h (0 Bft) NO 45 -4,6 C -1,7 C 0,0 km/h (0 Bft)
13.03.2014 03:43 -2,5 C 86 % 1025,9 hPa 0,0 l/m 0,0 km/h (0 Bft) NO 45 -4,5 C -1,7 C 0,0 km/h (0 Bft)
13.03.2014 03:45 -2,3 C 86 % 1025,8 hPa 0,0 l/m 0,0 km/h (0 Bft) NO 45 -4,3 C -1,7 C 0,0 km/h (0 Bft)
13.03.2014 03:50 -2,3 C 86 % 1025,8 hPa 0,0 l/m 0,0 km/h (0 Bft) NO 45 -4,3 C -1,7 C 0,0 km/h (0 Bft)
13.03.2014 03:55 -2,3 C 86 % 1025,8 hPa 0,0 l/m 0,0 km/h (0 Bft) NO 45 -4,3 C -1,7 C 0,0 km/h (0 Bft)
13.03.2014 04:00 -2,3 C 86 % 1025,8 hPa 0,0 l/m 0,0 km/h (0 Bft) NO 45 -4,3 C -1,7 C 0,0 km/h (0 Bft)
13.03.2014 04:05 -2,4 C 86 % 1025,8 hPa 0,0 l/m 0,0 km/h (0 Bft) NO 45 -4,4 C -1,7 C 0,0 km/h (0 Bft)
13.03.2014 04:10 -2,7 C 86 % 1025,9 hPa 0,0 l/m 0,0 km/h (0 Bft) NO 45 -4,7 C -1,7 C 0,0 km/h (0 Bft)
13.03.2014 04:15 -2,7 C 86 % 1025,9 hPa 0,0 l/m 0,0 km/h (0 Bft) NO 45 -4,7 C -1,7 C 0,0 km/h (0 Bft)
13.03.2014 04:20 -2,4 C 86 % 1025,9 hPa 0,0 l/m 0,0 km/h (0 Bft) NO 45 -4,4 C -1,7 C 0,0 km/h (0 Bft)
13.03.2014 04:25 -2,4 C 87 % 1025,9 hPa 0,0 l/m 0,0 km/h (0 Bft) NO 45 -4,3 C -1,7 C 0,0 km/h (0 Bft)
13.03.2014 04:30 -2,3 C 87 % 1025,7 hPa 0,0 l/m 0,0 km/h (0 Bft) NO 45 -4,2 C -1,7 C 0,0 km/h (0 Bft)
13.03.2014 04:35 -2,4 C 87 % 1025,7 hPa 0,0 l/m 0,0 km/h (0 Bft) NO 45 -4,3 C -1,7 C 0,0 km/h (0 Bft)
13.03.2014 04:40 -2,7 C 87 % 1025,7 hPa 0,0 l/m 0,0 km/h (0 Bft) NO 45 -4,6 C -1,7 C 0,0 km/h (0 Bft)
13.03.2014 04:45 -2,6 C 87 % 1025,7 hPa 0,0 l/m 0,0 km/h (0 Bft) NO 45 -4,5 C -1,7 C 0,0 km/h (0 Bft)
13.03.2014 04:50 -2,8 C 87 % 1025,6 hPa 0,0 l/m 0,0 km/h (0 Bft) NO 45 -4,7 C -1,7 C 0,0 km/h (0 Bft)
13.03.2014 04:55 -2,6 C 87 % 1025,6 hPa 0,0 l/m 0,0 km/h (0 Bft) NO 45 -4,5 C -1,7 C 0,0 km/h (0 Bft)
13.03.2014 05:00 -2,6 C 87 % 1025,6 hPa 0,0 l/m 0,0 km/h (0 Bft) NO 45 -4,5 C -1,7 C 0,0 km/h (0 Bft)
13.03.2014 05:05 -2,4 C 87 % 1025,6 hPa 0,0 l/m 0,0 km/h (0 Bft) NO 45 -4,3 C -1,7 C 0,0 km/h (0 Bft)
13.03.2014 05:10 -2,2 C 88 % 1025,8 hPa 0,0 l/m 0,0 km/h (0 Bft) NO 45 -3,9 C -1,7 C 0,0 km/h (0 Bft)
13.03.2014 05:15 -2,2 C 88 % 1025,8 hPa 0,0 l/m 0,0 km/h (0 Bft) NO 45 -3,9 C -1,7 C 0,0 km/h (0 Bft)
13.03.2014 05:20 -2,8 C 88 % 1025,8 hPa 0,0 l/m 0,0 km/h (0 Bft) NO 45 -4,5 C -1,7 C 0,0 km/h (0 Bft)
13.03.2014 05:25 -2,7 C 88 % 1025,8 hPa 0,0 l/m 0,0 km/h (0 Bft) NO 45 -4,4 C -1,7 C 0,0 km/h (0 Bft)
13.03.2014 05:30 -2,9 C 87 % 1025,8 hPa 0,0 l/m 0,0 km/h (0 Bft) NO 45 -4,8 C -1,7 C 0,0 km/h (0 Bft)
13.03.2014 05:35 -2,9 C 88 % 1025,8 hPa 0,0 l/m 0,0 km/h (0 Bft) NO 45 -4,6 C -1,7 C 0,0 km/h (0 Bft)
13.03.2014 05:40 -2,7 C 88 % 1025,8 hPa 0,0 l/m 0,0 km/h (0 Bft) NO 45 -4,4 C -1,7 C 0,0 km/h (0 Bft)
13.03.2014 05:45 -2,6 C 88 % 1025,8 hPa 0,0 l/m 0,0 km/h (0 Bft) NO 45 -4,3 C -1,7 C 0,0 km/h (0 Bft)
13.03.2014 05:50 -2,6 C 88 % 1025,9 hPa 0,0 l/m 0,0 km/h (0 Bft) NO 45 -4,3 C -1,7 C 0,0 km/h (0 Bft)
13.03.2014 05:55 -2,8 C 88 % 1025,9 hPa 0,0 l/m 0,0 km/h (0 Bft) NO 45 -4,5 C -1,7 C 0,0 km/h (0 Bft)
13.03.2014 06:00 -2,8 C 88 % 1025,9 hPa 0,0 l/m 0,0 km/h (0 Bft) NO 45 -4,5 C -1,7 C 0,0 km/h (0 Bft)
13.03.2014 06:05 -2,8 C 88 % 1025,9 hPa 0,0 l/m 0,0 km/h (0 Bft) NO 45 -4,5 C -1,7 C 0,0 km/h (0 Bft)
13.03.2014 06:10 -2,9 C 88 % 1025,9 hPa 0,0 l/m 0,0 km/h (0 Bft) NO 45 -4,6 C -1,7 C 0,0 km/h (0 Bft)
13.03.2014 06:15 -2,9 C 88 % 1025,9 hPa 0,0 l/m 0,0 km/h (0 Bft) NO 45 -4,6 C -1,7 C 0,0 km/h (0 Bft)
13.03.2014 06:20 -2,9 C 88 % 1025,9 hPa 0,0 l/m 0,0 km/h (0 Bft) NO 45 -4,6 C -1,7 C 0,0 km/h (0 Bft)
13.03.2014 06:25 -3,0 C 88 % 1025,9 hPa 0,0 l/m 0,0 km/h (0 Bft) NO 45 -4,7 C -1,7 C 0,0 km/h (0 Bft)
13.03.2014 06:30 -2,8 C 89 % 1026,0 hPa 0,0 l/m 0,0 km/h (0 Bft) NO 45 -4,4 C -1,7 C 0,0 km/h (0 Bft)
13.03.2014 06:35 -2,8 C 89 % 1026,0 hPa 0,0 l/m 0,0 km/h (0 Bft) NO 45 -4,4 C -1,7 C 0,0 km/h (0 Bft)
13.03.2014 06:40 -2,7 C 89 % 1026,0 hPa 0,0 l/m 0,0 km/h (0 Bft) NO 45 -4,3 C -1,7 C 0,0 km/h (0 Bft)
13.03.2014 06:45 -2,6 C 89 % 1026,0 hPa 0,0 l/m 0,0 km/h (0 Bft) NO 45 -4,2 C -1,7 C 0,0 km/h (0 Bft)
13.03.2014 06:50 -2,6 C 89 % 1026,2 hPa 0,0 l/m 0,0 km/h (0 Bft) NO 45 -4,2 C -1,7 C 0,0 km/h (0 Bft)
13.03.2014 06:55 -2,4 C 90 % 1026,2 hPa 0,0 l/m 0,0 km/h (0 Bft) NO 45 -3,8 C -1,7 C 0,0 km/h (0 Bft)
13.03.2014 07:00 -2,0 C 90 % 1026,2 hPa 0,0 l/m 0,0 km/h (0 Bft) NO 45 -3,4 C -1,7 C 0,0 km/h (0 Bft)
13.03.2014 07:05 -2,2 C 90 % 1026,2 hPa 0,0 l/m 0,0 km/h (0 Bft) NO 45 -3,6 C -1,7 C 0,0 km/h (0 Bft)
13.03.2014 07:10 -2,4 C 90 % 1026,4 hPa 0,0 l/m 0,0 km/h (0 Bft) NO 45 -3,8 C -1,7 C 0,0 km/h (0 Bft)
13.03.2014 07:15 -2,4 C 89 % 1026,4 hPa 0,0 l/m 0,0 km/h (0 Bft) NO 45 -4,0 C -1,7 C 0,0 km/h (0 Bft)
13.03.2014 07:20 -2,3 C 90 % 1026,4 hPa 0,0 l/m 0,0 km/h (0 Bft) NO 45 -3,7 C -1,7 C 0,0 km/h (0 Bft)
13.03.2014 07:25 -2,2 C 90 % 1026,4 hPa 0,0 l/m 0,0 km/h (0 Bft) NO 45 -3,6 C -1,7 C 0,0 km/h (0 Bft)
13.03.2014 07:30 -2,2 C 90 % 1026,5 hPa 0,0 l/m 0,0 km/h (0 Bft) NO 45 -3,6 C -1,7 C 0,0 km/h (0 Bft)
13.03.2014 07:35 -2,2 C 90 % 1026,5 hPa 0,0 l/m 0,0 km/h (0 Bft) NO 45 -3,6 C -1,7 C 0,0 km/h (0 Bft)
13.03.2014 07:40 -1,9 C 90 % 1026,5 hPa 0,0 l/m 0,0 km/h (0 Bft) NO 45 -3,3 C -1,7 C 0,0 km/h (0 Bft)
13.03.2014 07:45 -1,6 C 90 % 1026,5 hPa 0,0 l/m 0,0 km/h (0 Bft) NO 45 -3,0 C -1,7 C 0,0 km/h (0 Bft)
13.03.2014 07:50 -1,5 C 90 % 1026,8 hPa 0,0 l/m 0,0 km/h (0 Bft) NO 45 -2,9 C -1,7 C 0,0 km/h (0 Bft)
13.03.2014 07:55 -1,1 C 91 % 1026,8 hPa 0,0 l/m 0,0 km/h (0 Bft) NO 45 -2,4 C -1,7 C 0,0 km/h (0 Bft)
13.03.2014 08:00 -1,0 C 91 % 1026,8 hPa 0,0 l/m 0,0 km/h (0 Bft) NO 45 -2,3 C -1,7 C 0,0 km/h (0 Bft)
13.03.2014 08:05 -0,8 C 91 % 1026,8 hPa 0,0 l/m 0,0 km/h (0 Bft) NO 45 -2,1 C -1,7 C 0,0 km/h (0 Bft)
13.03.2014 08:10 -0,3 C 91 % 1026,8 hPa 0,0 l/m 0,0 km/h (0 Bft) NO 45 -1,6 C -1,7 C 0,0 km/h (0 Bft)
13.03.2014 08:15 0,1 C 92 % 1026,8 hPa 0,0 l/m 0,0 km/h (0 Bft) NO 45 -1,0 C -1,7 C 0,0 km/h (0 Bft)
13.03.2014 08:20 0,8 C 92 % 1026,8 hPa 0,0 l/m 0,0 km/h (0 Bft) NO 45 -0,3 C -1,7 C 0,0 km/h (0 Bft)
13.03.2014 08:25 1,8 C 92 % 1026,8 hPa 0,0 l/m 0,0 km/h (0 Bft) NO 45 0,6 C -1,7 C 0,0 km/h (0 Bft)
13.03.2014 08:30 2,0 C 91 % 1026,9 hPa 0,0 l/m 0,0 km/h (0 Bft) NO 45 0,7 C -1,7 C 0,0 km/h (0 Bft)
13.03.2014 08:35 2,1 C 91 % 1026,9 hPa 0,0 l/m 0,0 km/h (0 Bft) NO 45 0,8 C -1,7 C 0,0 km/h (0 Bft)
13.03.2014 08:38 2,7 C 91 % 1026,9 hPa 0,0 l/m 0,0 km/h (0 Bft) NO 45 1,4 C -1,7 C 0,0 km/h (0 Bft)
13.03.2014 08:40 5,0 C 89 % 1026,9 hPa 0,0 l/m 0,0 km/h (0 Bft) NO 45 3,3 C -1,7 C 0,0 km/h (0 Bft)
13.03.2014 08:45 5,7 C 84 % 1027,3 hPa 0,0 l/m 0,0 km/h (0 Bft) NO 45 3,2 C -1,7 C 0,0 km/h (0 Bft)
13.03.2014 08:50 5,1 C 83 % 1027,3 hPa 0,0 l/m 0,0 km/h (0 Bft) NO 45 2,5 C -1,7 C 0,0 km/h (0 Bft)
13.03.2014 08:55 7,0 C 79 % 1027,3 hPa 0,0 l/m 0,0 km/h (0 Bft) NO 45 3,6 C -1,7 C 0,0 km/h (0 Bft)
13.03.2014 09:00 7,0 C 79 % 1027,3 hPa 0,0 l/m 0,0 km/h (0 Bft) NO 45 3,6 C -1,7 C 0,0 km/h (0 Bft)
13.03.2014 09:05 6,9 C 74 % 1027,3 hPa 0,0 l/m 0,0 km/h (0 Bft) NO 45 2,6 C -1,7 C 0,0 km/h (0 Bft)
13.03.2014 09:10 7,3 C 74 % 1027,5 hPa 0,0 l/m 0,0 km/h (0 Bft) NO 45 3,0 C -1,7 C 0,0 km/h (0 Bft)
13.03.2014 09:15 8,1 C 72 % 1027,5 hPa 0,0 l/m 0,0 km/h (0 Bft) NO 45 3,4 C -1,7 C 0,0 km/h (0 Bft)
13.03.2014 09:20 10,4 C 67 % 1027,5 hPa 0,0 l/m 0,0 km/h (0 Bft) NO 45 4,5 C -1,7 C 0,0 km/h (0 Bft)
13.03.2014 09:25 11,4 C 65 % 1027,5 hPa 0,0 l/m 0,0 km/h (0 Bft) NO 45 5,1 C -1,7 C 0,0 km/h (0 Bft)
13.03.2014 09:30 13,0 C 59 % 1027,7 hPa 0,0 l/m 0,0 km/h (0 Bft) NO 45 5,2 C -1,7 C 0,0 km/h (0 Bft)
13.03.2014 09:35 13,4 C 56 % 1027,7 hPa 0,0 l/m 0,0 km/h (0 Bft) NO 45 4,8 C -1,7 C 0,0 km/h (0 Bft)
13.03.2014 09:40 13,9 C 50 % 1027,7 hPa 0,0 l/m 0,0 km/h (0 Bft) NO 45 3,7 C -1,7 C 0,0 km/h (0 Bft)
13.03.2014 09:45 13,5 C 49 % 1027,7 hPa 0,0 l/m 0,0 km/h (0 Bft) NO 45 3,0 C -1,7 C 0,0 km/h (0 Bft)
13.03.2014 09:50 13,9 C 44 % 1027,8 hPa 0,0 l/m 0,0 km/h (0 Bft) NO 45 1,9 C -1,7 C 0,0 km/h (0 Bft)
13.03.2014 09:55 14,0 C 41 % 1027,8 hPa 0,0 l/m 0,0 km/h (0 Bft) NO 45 1,0 C -1,7 C 0,0 km/h (0 Bft)
13.03.2014 10:00 14,5 C 43 % 1027,8 hPa 0,0 l/m 0,0 km/h (0 Bft) NO 45 2,1 C -1,7 C 0,0 km/h (0 Bft)
13.03.2014 10:05 14,4 C 43 % 1027,8 hPa 0,0 l/m 0,0 km/h (0 Bft) NO 45 2,0 C -1,7 C 0,0 km/h (0 Bft)
13.03.2014 10:10 14,2 C 41 % 1027,9 hPa 0,0 l/m 0,0 km/h (0 Bft) NO 45 1,1 C -1,7 C 0,0 km/h (0 Bft)
13.03.2014 10:15 14,4 C 42 % 1027,9 hPa 0,0 l/m 0,0 km/h (0 Bft) NO 45 1,7 C -1,7 C 0,0 km/h (0 Bft)
13.03.2014 10:20 15,1 C 40 % 1027,9 hPa 0,0 l/m 0,0 km/h (0 Bft) NO 45 1,6 C -1,7 C 0,0 km/h (0 Bft)
13.03.2014 10:25 15,1 C 38 % 1027,9 hPa 0,0 l/m 0,0 km/h (0 Bft) NO 45 0,9 C -1,7 C 0,0 km/h (0 Bft)
13.03.2014 10:30 15,9 C 37 % 1028,0 hPa 0,0 l/m 0,5 km/h (0 Bft) SW 225 1,2 C 16,1 C 6,4 km/h (2 Bft)
13.03.2014 10:35 16,0 C 37 % 1028,0 hPa 0,0 l/m 0,5 km/h (0 Bft) SW 225 1,3 C 16,1 C 6,4 km/h (2 Bft)
13.03.2014 10:40 16,3 C 36 % 1028,0 hPa 0,0 l/m 0,5 km/h (0 Bft) SW 225 1,2 C 16,1 C 6,4 km/h (2 Bft)
13.03.2014 10:45 15,8 C 34 % 1028,0 hPa 0,0 l/m 0,0 km/h (0 Bft) SW 225 -0,0 C 16,1 C 0,0 km/h (0 Bft)
13.03.2014 10:50 16,2 C 36 % 1028,0 hPa 0,0 l/m 0,0 km/h (0 Bft) SW 225 1,1 C 16,1 C 0,0 km/h (0 Bft)
13.03.2014 10:55 16,6 C 35 % 1028,0 hPa 0,0 l/m 0,0 km/h (0 Bft) SW 225 1,1 C 16,1 C 0,0 km/h (0 Bft)
13.03.2014 11:00 17,0 C 35 % 1028,0 hPa 0,0 l/m 0,0 km/h (0 Bft) SW 225 1,4 C 16,1 C 0,0 km/h (0 Bft)
13.03.2014 11:05 17,3 C 34 % 1028,0 hPa 0,0 l/m 0,0 km/h (0 Bft) SW 225 1,3 C 16,1 C 0,0 km/h (0 Bft)
13.03.2014 11:10 17,1 C 34 % 1028,0 hPa 0,0 l/m 0,0 km/h (0 Bft) SW 225 1,1 C 16,1 C 0,0 km/h (0 Bft)
13.03.2014 11:15 17,1 C 32 % 1028,0 hPa 0,0 l/m 0,0 km/h (0 Bft) SW 225 0,3 C 16,1 C 0,0 km/h (0 Bft)
13.03.2014 11:20 17,2 C 33 % 1028,0 hPa 0,0 l/m 0,0 km/h (0 Bft) SW 225 0,8 C 16,1 C 0,0 km/h (0 Bft)
13.03.2014 11:25 17,1 C 33 % 1028,0 hPa 0,0 l/m 0,0 km/h (0 Bft) SW 225 0,7 C 16,1 C 0,0 km/h (0 Bft)
13.03.2014 11:30 17,4 C 32 % 1028,1 hPa 0,0 l/m 0,0 km/h (0 Bft) SW 225 0,5 C 16,1 C 0,0 km/h (0 Bft)
13.03.2014 11:35 17,5 C 33 % 1028,1 hPa 0,0 l/m 0,0 km/h (0 Bft) SW 225 1,1 C 16,1 C 0,0 km/h (0 Bft)
13.03.2014 11:40 17,7 C 33 % 1028,1 hPa 0,0 l/m 0,0 km/h (0 Bft) SW 225 1,2 C 16,1 C 0,0 km/h (0 Bft)
13.03.2014 11:45 17,5 C 33 % 1028,1 hPa 0,0 l/m 0,0 km/h (0 Bft) SW 225 1,1 C 16,1 C 0,0 km/h (0 Bft)
13.03.2014 11:50 18,1 C 33 % 1028,0 hPa 0,0 l/m 0,0 km/h (0 Bft) SW 225 1,6 C 16,1 C 0,0 km/h (0 Bft)
13.03.2014 11:55 17,4 C 33 % 1028,0 hPa 0,0 l/m 0,0 km/h (0 Bft) SW 225 1,0 C 16,1 C 0,0 km/h (0 Bft)
13.03.2014 12:00 17,3 C 33 % 1028,0 hPa 0,0 l/m 0,0 km/h (0 Bft) SW 225 0,9 C 16,1 C 0,0 km/h (0 Bft)
13.03.2014 12:05 17,1 C 33 % 1028,0 hPa 0,0 l/m 0,0 km/h (0 Bft) SW 225 0,7 C 16,1 C 0,0 km/h (0 Bft)
13.03.2014 12:10 17,1 C 34 % 1028,0 hPa 0,0 l/m 0,0 km/h (0 Bft) SW 225 1,1 C 16,1 C 0,0 km/h (0 Bft)
13.03.2014 12:15 17,6 C 33 % 1028,0 hPa 0,0 l/m 0,0 km/h (0 Bft) SW 225 1,1 C 16,1 C 0,0 km/h (0 Bft)
13.03.2014 12:20 17,9 C 34 % 1028,0 hPa 0,0 l/m 0,0 km/h (0 Bft) SW 225 1,8 C 16,1 C 0,0 km/h (0 Bft)
13.03.2014 12:25 17,5 C 34 % 1028,0 hPa 0,0 l/m 0,0 km/h (0 Bft) SW 225 1,5 C 16,1 C 0,0 km/h (0 Bft)
13.03.2014 12:30 17,4 C 35 % 1027,8 hPa 0,0 l/m 0,0 km/h (0 Bft) SW 225 1,8 C 16,1 C 0,0 km/h (0 Bft)
13.03.2014 12:35 17,9 C 34 % 1027,8 hPa 0,0 l/m 0,0 km/h (0 Bft) SW 225 1,8 C 16,1 C 0,0 km/h (0 Bft)
13.03.2014 12:40 17,6 C 34 % 1027,8 hPa 0,0 l/m 0,0 km/h (0 Bft) SW 225 1,6 C 16,1 C 0,0 km/h (0 Bft)
13.03.2014 12:45 17,9 C 34 % 1027,8 hPa 0,0 l/m 0,0 km/h (0 Bft) SW 225 1,8 C 16,1 C 0,0 km/h (0 Bft)
13.03.2014 12:50 17,5 C 35 % 1027,7 hPa 0,0 l/m 0,0 km/h (0 Bft) SW 225 1,9 C 16,1 C 0,0 km/h (0 Bft)
13.03.2014 12:55 16,3 C 34 % 1027,7 hPa 0,0 l/m 0,0 km/h (0 Bft) SW 225 0,4 C 16,1 C 0,0 km/h (0 Bft)
13.03.2014 13:00 17,7 C 34 % 1027,7 hPa 0,0 l/m 0,0 km/h (0 Bft) SW 225 1,6 C 16,1 C 0,0 km/h (0 Bft)
13.03.2014 13:05 17,0 C 33 % 1027,7 hPa 0,0 l/m 0,0 km/h (0 Bft) SW 225 0,6 C 16,1 C 0,0 km/h (0 Bft)
13.03.2014 13:10 17,2 C 33 % 1027,6 hPa 0,0 l/m 0,0 km/h (0 Bft) SW 225 0,8 C 16,1 C 0,0 km/h (0 Bft)
13.03.2014 13:15 17,3 C 34 % 1027,6 hPa 0,0 l/m 0,0 km/h (0 Bft) SW 225 1,3 C 16,1 C 0,0 km/h (0 Bft)
13.03.2014 13:20 17,2 C 33 % 1027,6 hPa 0,0 l/m 0,0 km/h (0 Bft) SW 225 0,8 C 16,1 C 0,0 km/h (0 Bft)
13.03.2014 13:25 17,8 C 33 % 1027,6 hPa 0,0 l/m 0,0 km/h (0 Bft) SW 225 1,3 C 16,1 C 0,0 km/h (0 Bft)
13.03.2014 13:30 17,7 C 33 % 1027,4 hPa 0,0 l/m 0,0 km/h (0 Bft) SW 225 1,2 C 16,1 C 0,0 km/h (0 Bft)
13.03.2014 13:35 17,9 C 33 % 1027,4 hPa 0,0 l/m 0,0 km/h (0 Bft) SW 225 1,4 C 16,1 C 0,0 km/h (0 Bft)
13.03.2014 13:38 18,7 C 34 % 1027,4 hPa 0,0 l/m 0,0 km/h (0 Bft) SW 225 2,5 C 16,1 C 0,0 km/h (0 Bft)
13.03.2014 13:40 18,1 C 33 % 1027,4 hPa 0,0 l/m 0,0 km/h (0 Bft) SW 225 1,6 C 16,1 C 0,0 km/h (0 Bft)
13.03.2014 13:45 17,4 C 33 % 1027,4 hPa 0,0 l/m 0,0 km/h (0 Bft) SW 225 1,0 C 16,1 C 0,0 km/h (0 Bft)
13.03.2014 13:50 17,1 C 33 % 1027,4 hPa 0,0 l/m 0,0 km/h (0 Bft) SW 225 0,7 C 16,1 C 0,0 km/h (0 Bft)
13.03.2014 13:55 17,1 C 33 % 1027,4 hPa 0,0 l/m 0,0 km/h (0 Bft) SW 225 0,7 C 16,1 C 0,0 km/h (0 Bft)
13.03.2014 14:00 18,5 C 33 % 1027,4 hPa 0,0 l/m 0,0 km/h (0 Bft) SW 225 1,9 C 16,1 C 0,0 km/h (0 Bft)
13.03.2014 14:05 18,2 C 33 % 1027,4 hPa 0,0 l/m 0,0 km/h (0 Bft) SW 225 1,7 C 16,1 C 0,0 km/h (0 Bft)
13.03.2014 14:10 18,5 C 33 % 1027,0 hPa 0,0 l/m 0,0 km/h (0 Bft) SW 225 1,9 C 16,1 C 0,0 km/h (0 Bft)
13.03.2014 14:15 18,1 C 32 % 1027,0 hPa 0,0 l/m 0,0 km/h (0 Bft) SW 225 1,2 C 16,1 C 0,0 km/h (0 Bft)
13.03.2014 14:20 17,5 C 34 % 1027,0 hPa 0,0 l/m 0,0 km/h (0 Bft) SW 225 1,5 C 16,1 C 0,0 km/h (0 Bft)
13.03.2014 14:25 18,1 C 33 % 1027,0 hPa 0,0 l/m 0,0 km/h (0 Bft) SW 225 1,6 C 16,1 C 0,0 km/h (0 Bft)
13.03.2014 14:30 18,0 C 33 % 1026,8 hPa 0,0 l/m 0,0 km/h (0 Bft) SW 225 1,5 C 16,1 C 0,0 km/h (0 Bft)
13.03.2014 14:35 17,9 C 34 % 1026,8 hPa 0,0 l/m 0,0 km/h (0 Bft) SW 225 1,8 C 16,1 C 0,0 km/h (0 Bft)
13.03.2014 14:40 18,6 C 34 % 1026,8 hPa 0,0 l/m 0,0 km/h (0 Bft) SW 225 2,4 C 16,1 C 0,0 km/h (0 Bft)
13.03.2014 14:45 17,7 C 34 % 1026,8 hPa 0,0 l/m 0,0 km/h (0 Bft) SW 225 1,6 C 16,1 C 0,0 km/h (0 Bft)
13.03.2014 14:50 16,9 C 35 % 1026,6 hPa 0,0 l/m 0,0 km/h (0 Bft) SW 225 1,3 C 16,1 C 0,0 km/h (0 Bft)
13.03.2014 14:55 17,7 C 35 % 1026,6 hPa 0,0 l/m 0,0 km/h (0 Bft) SW 225 2,1 C 16,1 C 0,0 km/h (0 Bft)
13.03.2014 15:00 18,0 C 34 % 1026,6 hPa 0,0 l/m 0,0 km/h (0 Bft) SW 225 1,9 C 16,1 C 0,0 km/h (0 Bft)
13.03.2014 15:05 17,5 C 35 % 1026,6 hPa 0,0 l/m 0,0 km/h (0 Bft) SW 225 1,9 C 16,1 C 0,0 km/h (0 Bft)
13.03.2014 15:10 17,5 C 36 % 1026,6 hPa 0,0 l/m 0,0 km/h (0 Bft) SW 225 2,3 C 16,1 C 0,0 km/h (0 Bft)
13.03.2014 15:15 17,2 C 37 % 1026,6 hPa 0,0 l/m 0,0 km/h (0 Bft) SW 225 2,4 C 16,1 C 0,0 km/h (0 Bft)
13.03.2014 15:20 16,8 C 37 % 1026,6 hPa 0,0 l/m 0,0 km/h (0 Bft) SW 225 2,0 C 16,1 C 0,0 km/h (0 Bft)
13.03.2014 15:25 17,3 C 38 % 1026,6 hPa 0,0 l/m 0,0 km/h (0 Bft) SW 225 2,9 C 16,1 C 0,0 km/h (0 Bft)
13.03.2014 15:30 16,9 C 38 % 1026,4 hPa 0,0 l/m 0,0 km/h (0 Bft) SW 225 2,5 C 16,1 C 0,0 km/h (0 Bft)
13.03.2014 15:35 16,5 C 38 % 1026,4 hPa 0,0 l/m 0,0 km/h (0 Bft) SW 225 2,1 C 16,1 C 0,0 km/h (0 Bft)
13.03.2014 15:40 16,7 C 40 % 1026,4 hPa 0,0 l/m 0,0 km/h (0 Bft) SW 225 3,0 C 16,1 C 0,0 km/h (0 Bft)
13.03.2014 15:45 16,2 C 39 % 1026,4 hPa 0,0 l/m 0,0 km/h (0 Bft) SW 225 2,2 C 16,1 C 0,0 km/h (0 Bft)
13.03.2014 15:50 16,2 C 40 % 1026,2 hPa 0,0 l/m 0,0 km/h (0 Bft) SW 225 2,6 C 16,1 C 0,0 km/h (0 Bft)
13.03.2014 15:55 15,8 C 41 % 1026,2 hPa 0,0 l/m 0,0 km/h (0 Bft) SW 225 2,6 C 16,1 C 0,0 km/h (0 Bft)
13.03.2014 16:00 15,4 C 42 % 1026,2 hPa 0,0 l/m 0,0 km/h (0 Bft) SW 225 2,6 C 16,1 C 0,0 km/h (0 Bft)
13.03.2014 16:05 15,3 C 43 % 1026,2 hPa 0,0 l/m 0,0 km/h (0 Bft) SW 225 2,8 C 16,1 C 0,0 km/h (0 Bft)
13.03.2014 16:10 15,1 C 44 % 1025,9 hPa 0,0 l/m 0,0 km/h (0 Bft) SW 225 2,9 C 16,1 C 0,0 km/h (0 Bft)
13.03.2014 16:15 15,0 C 44 % 1025,9 hPa 0,0 l/m 0,0 km/h (0 Bft) SW 225 2,9 C 16,1 C 0,0 km/h (0 Bft)
13.03.2014 16:20 15,2 C 44 % 1025,9 hPa 0,0 l/m 0,0 km/h (0 Bft) SW 225 3,0 C 16,1 C 0,0 km/h (0 Bft)
13.03.2014 16:25 15,2 C 43 % 1025,9 hPa 0,0 l/m 0,0 km/h (0 Bft) SW 225 2,7 C 16,1 C 0,0 km/h (0 Bft)
13.03.2014 16:30 14,9 C 44 % 1026,0 hPa 0,0 l/m 0,0 km/h (0 Bft) SW 225 2,8 C 16,1 C 0,0 km/h (0 Bft)
13.03.2014 16:35 14,7 C 45 % 1026,0 hPa 0,0 l/m 0,0 km/h (0 Bft) SW 225 2,9 C 16,1 C 0,0 km/h (0 Bft)
13.03.2014 16:40 14,2 C 46 % 1026,0 hPa 0,0 l/m 0,0 km/h (0 Bft) SW 225 2,8 C 16,1 C 0,0 km/h (0 Bft)
13.03.2014 16:45 14,1 C 46 % 1026,0 hPa 0,0 l/m 0,0 km/h (0 Bft) SW 225 2,7 C 16,1 C 0,0 km/h (0 Bft)
13.03.2014 16:50 13,8 C 48 % 1026,0 hPa 0,0 l/m 0,0 km/h (0 Bft) SW 225 3,0 C 16,1 C 0,0 km/h (0 Bft)
13.03.2014 16:55 13,7 C 48 % 1026,0 hPa 0,0 l/m 0,0 km/h (0 Bft) SW 225 2,9 C 16,1 C 0,0 km/h (0 Bft)
13.03.2014 17:00 13,0 C 49 % 1026,0 hPa 0,0 l/m 0,0 km/h (0 Bft) SW 225 2,5 C 16,1 C 0,0 km/h (0 Bft)
13.03.2014 17:05 13,2 C 49 % 1026,0 hPa 0,0 l/m 0,0 km/h (0 Bft) SW 225 2,7 C 16,1 C 0,0 km/h (0 Bft)
13.03.2014 17:10 12,7 C 51 % 1026,2 hPa 0,0 l/m 0,0 km/h (0 Bft) SW 225 2,8 C 16,1 C 0,0 km/h (0 Bft)
13.03.2014 17:15 12,3 C 52 % 1026,2 hPa 0,0 l/m 0,0 km/h (0 Bft) SW 225 2,7 C 16,1 C 0,0 km/h (0 Bft)
13.03.2014 17:20 11,9 C 53 % 1026,2 hPa 0,0 l/m 0,0 km/h (0 Bft) SW 225 2,6 C 16,1 C 0,0 km/h (0 Bft)
13.03.2014 17:25 11,6 C 53 % 1026,2 hPa 0,0 l/m 0,0 km/h (0 Bft) SW 225 2,4 C 16,1 C 0,0 km/h (0 Bft)
13.03.2014 17:30 11,3 C 54 % 1025,9 hPa 0,0 l/m 0,0 km/h (0 Bft) SW 225 2,3 C 16,1 C 0,0 km/h (0 Bft)
13.03.2014 17:35 11,1 C 54 % 1025,9 hPa 0,0 l/m 0,0 km/h (0 Bft) SW 225 2,2 C 16,1 C 0,0 km/h (0 Bft)
13.03.2014 17:40 11,2 C 54 % 1025,9 hPa 0,0 l/m 0,0 km/h (0 Bft) SW 225 2,2 C 16,1 C 0,0 km/h (0 Bft)
13.03.2014 17:45 11,1 C 54 % 1025,9 hPa 0,0 l/m 0,0 km/h (0 Bft) SW 225 2,2 C 16,1 C 0,0 km/h (0 Bft)
13.03.2014 17:50 11,1 C 54 % 1026,1 hPa 0,0 l/m 0,0 km/h (0 Bft) SW 225 2,2 C 16,1 C 0,0 km/h (0 Bft)
13.03.2014 17:55 10,9 C 55 % 1026,1 hPa 0,0 l/m 0,0 km/h (0 Bft) SW 225 2,2 C 16,1 C 0,0 km/h (0 Bft)
13.03.2014 18:00 10,7 C 55 % 1026,1 hPa 0,0 l/m 0,0 km/h (0 Bft) SW 225 2,0 C 16,1 C 0,0 km/h (0 Bft)
13.03.2014 18:05 10,6 C 55 % 1026,1 hPa 0,0 l/m 0,0 km/h (0 Bft) SW 225 1,9 C 16,1 C 0,0 km/h (0 Bft)
13.03.2014 18:10 10,2 C 56 % 1026,2 hPa 0,0 l/m 0,0 km/h (0 Bft) SW 225 1,8 C 16,1 C 0,0 km/h (0 Bft)
13.03.2014 18:15 9,6 C 58 % 1026,2 hPa 0,0 l/m 0,0 km/h (0 Bft) SW 225 1,8 C 16,1 C 0,0 km/h (0 Bft)
13.03.2014 18:20 9,3 C 58 % 1026,2 hPa 0,0 l/m 0,0 km/h (0 Bft) SW 225 1,5 C 16,1 C 0,0 km/h (0 Bft)
13.03.2014 18:25 9,2 C 58 % 1026,2 hPa 0,0 l/m 0,0 km/h (0 Bft) SW 225 1,4 C 16,1 C 0,0 km/h (0 Bft)
13.03.2014 18:30 8,9 C 58 % 1026,3 hPa 0,0 l/m 0,0 km/h (0 Bft) SW 225 1,1 C 16,1 C 0,0 km/h (0 Bft)
13.03.2014 18:35 8,1 C 59 % 1026,3 hPa 0,0 l/m 0,0 km/h (0 Bft) SW 225 0,6 C 16,1 C 0,0 km/h (0 Bft)
13.03.2014 18:38 7,9 C 60 % 1026,3 hPa 0,0 l/m 0,0 km/h (0 Bft) SW 225 0,6 C 16,1 C 0,0 km/h (0 Bft)
13.03.2014 18:40 8,3 C 60 % 1026,3 hPa 0,0 l/m 0,0 km/h (0 Bft) SW 225 1,0 C 16,1 C 0,0 km/h (0 Bft)
13.03.2014 18:45 8,1 C 62 % 1026,4 hPa 0,0 l/m 0,0 km/h (0 Bft) SW 225 1,3 C 16,1 C 0,0 km/h (0 Bft)
13.03.2014 18:50 8,3 C 61 % 1026,4 hPa 0,0 l/m 0,0 km/h (0 Bft) SW 225 1,2 C 16,1 C 0,0 km/h (0 Bft)
13.03.2014 18:55 7,6 C 61 % 1026,4 hPa 0,0 l/m 0,0 km/h (0 Bft) SW 225 0,6 C 16,1 C 0,0 km/h (0 Bft)
13.03.2014 19:00 7,6 C 61 % 1026,4 hPa 0,0 l/m 0,0 km/h (0 Bft) SW 225 0,6 C 16,1 C 0,0 km/h (0 Bft)
13.03.2014 19:05 7,5 C 63 % 1026,4 hPa 0,0 l/m 0,0 km/h (0 Bft) SW 225 0,9 C 16,1 C 0,0 km/h (0 Bft)
13.03.2014 19:10 7,2 C 64 % 1026,4 hPa 0,0 l/m 0,0 km/h (0 Bft) SW 225 0,9 C 16,1 C 0,0 km/h (0 Bft)
13.03.2014 19:15 7,1 C 66 % 1026,4 hPa 0,0 l/m 0,0 km/h (0 Bft) SW 225 1,2 C 16,1 C 0,0 km/h (0 Bft)
13.03.2014 19:20 7,2 C 66 % 1026,4 hPa 0,0 l/m 0,0 km/h (0 Bft) SW 225 1,3 C 16,1 C 0,0 km/h (0 Bft)
13.03.2014 19:25 7,2 C 66 % 1026,4 hPa 0,0 l/m 0,0 km/h (0 Bft) SW 225 1,3 C 16,1 C 0,0 km/h (0 Bft)
13.03.2014 19:30 7,2 C 66 % 1026,4 hPa 0,0 l/m 0,0 km/h (0 Bft) SW 225 1,3 C 16,1 C 0,0 km/h (0 Bft)
13.03.2014 19:35 7,0 C 66 % 1026,4 hPa 0,0 l/m 0,0 km/h (0 Bft) SW 225 1,1 C 16,1 C 0,0 km/h (0 Bft)
13.03.2014 19:40 6,6 C 69 % 1026,4 hPa 0,0 l/m 0,0 km/h (0 Bft) SW 225 1,3 C 16,1 C 0,0 km/h (0 Bft)
13.03.2014 19:45 6,4 C 69 % 1026,4 hPa 0,0 l/m 0,0 km/h (0 Bft) SW 225 1,1 C 16,1 C 0,0 km/h (0 Bft)
13.03.2014 19:50 5,7 C 71 % 1026,4 hPa 0,0 l/m 0,0 km/h (0 Bft) SW 225 0,9 C 16,1 C 0,0 km/h (0 Bft)
13.03.2014 19:55 5,8 C 72 % 1026,4 hPa 0,0 l/m 0,0 km/h (0 Bft) SW 225 1,2 C 16,1 C 0,0 km/h (0 Bft)
13.03.2014 20:00 6,0 C 72 % 1026,4 hPa 0,0 l/m 0,0 km/h (0 Bft) SW 225 1,3 C 16,1 C 0,0 km/h (0 Bft)
13.03.2014 20:05 5,9 C 73 % 1026,4 hPa 0,0 l/m 0,0 km/h (0 Bft) SW 225 1,4 C 16,1 C 0,0 km/h (0 Bft)
13.03.2014 20:10 5,5 C 74 % 1026,4 hPa 0,0 l/m 0,0 km/h (0 Bft) SW 225 1,2 C 16,1 C 0,0 km/h (0 Bft)
13.03.2014 20:15 5,4 C 74 % 1026,4 hPa 0,0 l/m 0,0 km/h (0 Bft) SW 225 1,1 C 16,1 C 0,0 km/h (0 Bft)
13.03.2014 20:20 5,6 C 75 % 1026,4 hPa 0,0 l/m 0,0 km/h (0 Bft) SW 225 1,5 C 16,1 C 0,0 km/h (0 Bft)
13.03.2014 20:25 5,7 C 75 % 1026,4 hPa 0,0 l/m 0,0 km/h (0 Bft) SW 225 1,6 C 16,1 C 0,0 km/h (0 Bft)
13.03.2014 20:30 4,2 C 73 % 1026,4 hPa 0,0 l/m 0,0 km/h (0 Bft) SW 225 -0,2 C 16,1 C 0,0 km/h (0 Bft)
13.03.2014 20:35 4,2 C 74 % 1026,4 hPa 0,0 l/m 0,0 km/h (0 Bft) SW 225 -0,0 C 16,1 C 0,0 km/h (0 Bft)
13.03.2014 20:40 4,2 C 75 % 1026,4 hPa 0,0 l/m 0,0 km/h (0 Bft) SW 225 0,2 C 16,1 C 0,0 km/h (0 Bft)
13.03.2014 20:45 3,8 C 75 % 1026,4 hPa 0,0 l/m 0,0 km/h (0 Bft) SW 225 -0,2 C 16,1 C 0,0 km/h (0 Bft)
13.03.2014 20:50 3,6 C 75 % 1026,5 hPa 0,0 l/m 0,0 km/h (0 Bft) SW 225 -0,4 C 16,1 C 0,0 km/h (0 Bft)
13.03.2014 20:55 3,7 C 77 % 1026,5 hPa 0,0 l/m 0,0 km/h (0 Bft) SW 225 0,1 C 16,1 C 0,0 km/h (0 Bft)
13.03.2014 21:00 2,8 C 77 % 1026,5 hPa 0,0 l/m 0,0 km/h (0 Bft) SW 225 -0,8 C 16,1 C 0,0 km/h (0 Bft)
13.03.2014 21:05 2,7 C 77 % 1026,6 hPa 0,0 l/m 0,0 km/h (0 Bft) SW 225 -0,9 C 16,1 C 0,0 km/h (0 Bft)
13.03.2014 21:10 2,5 C 77 % 1026,6 hPa 0,0 l/m 0,0 km/h (0 Bft) SW 225 -1,1 C 16,1 C 0,0 km/h (0 Bft)
13.03.2014 21:15 2,4 C 77 % 1026,6 hPa 0,0 l/m 0,0 km/h (0 Bft) SW 225 -1,2 C 16,1 C 0,0 km/h (0 Bft)
13.03.2014 21:20 2,3 C 78 % 1026,6 hPa 0,0 l/m 0,0 km/h (0 Bft) SW 225 -1,1 C 16,1 C 0,0 km/h (0 Bft)
13.03.2014 21:25 2,4 C 79 % 1026,5 hPa 0,0 l/m 0,0 km/h (0 Bft) SW 225 -0,9 C 16,1 C 0,0 km/h (0 Bft)
13.03.2014 21:30 2,2 C 79 % 1026,5 hPa 0,0 l/m 0,0 km/h (0 Bft) SW 225 -1,1 C 16,1 C 0,0 km/h (0 Bft)
13.03.2014 21:35 2,1 C 79 % 1026,5 hPa 0,0 l/m 0,0 km/h (0 Bft) SW 225 -1,2 C 16,1 C 0,0 km/h (0 Bft)
13.03.2014 21:40 1,9 C 79 % 1026,5 hPa 0,0 l/m 0,0 km/h (0 Bft) SW 225 -1,3 C 16,1 C 0,0 km/h (0 Bft)
13.03.2014 21:45 2,2 C 80 % 1026,5 hPa 0,0 l/m 0,0 km/h (0 Bft) SW 225 -0,9 C 16,1 C 0,0 km/h (0 Bft)
13.03.2014 21:50 2,2 C 80 % 1026,5 hPa 0,0 l/m 0,0 km/h (0 Bft) SW 225 -0,9 C 16,1 C 0,0 km/h (0 Bft)
13.03.2014 21:55 2,0 C 80 % 1026,5 hPa 0,0 l/m 0,0 km/h (0 Bft) SW 225 -1,1 C 16,1 C 0,0 km/h (0 Bft)
13.03.2014 22:00 1,9 C 81 % 1026,5 hPa 0,0 l/m 0,0 km/h (0 Bft) SW 225 -1,0 C 16,1 C 0,0 km/h (0 Bft)
13.03.2014 22:05 2,1 C 81 % 1026,5 hPa 0,0 l/m 0,0 km/h (0 Bft) SW 225 -0,8 C 16,1 C 0,0 km/h (0 Bft)
13.03.2014 22:10 2,0 C 82 % 1026,5 hPa 0,0 l/m 0,0 km/h (0 Bft) SW 225 -0,7 C 16,1 C 0,0 km/h (0 Bft)
13.03.2014 22:15 1,6 C 82 % 1026,5 hPa 0,0 l/m 0,0 km/h (0 Bft) SW 225 -1,1 C 16,1 C 0,0 km/h (0 Bft)
13.03.2014 22:20 1,4 C 82 % 1026,5 hPa 0,0 l/m 0,0 km/h (0 Bft) SW 225 -1,3 C 16,1 C 0,0 km/h (0 Bft)
13.03.2014 22:25 1,4 C 82 % 1026,5 hPa 0,0 l/m 0,0 km/h (0 Bft) SW 225 -1,3 C 16,1 C 0,0 km/h (0 Bft)
13.03.2014 22:30 1,4 C 82 % 1026,5 hPa 0,0 l/m 0,0 km/h (0 Bft) SW 225 -1,3 C 16,1 C 0,0 km/h (0 Bft)
13.03.2014 22:35 1,2 C 83 % 1026,5 hPa 0,0 l/m 0,0 km/h (0 Bft) SW 225 -1,4 C 16,1 C 0,0 km/h (0 Bft)
13.03.2014 22:40 1,2 C 83 % 1026,5 hPa 0,0 l/m 0,0 km/h (0 Bft) SW 225 -1,4 C 16,1 C 0,0 km/h (0 Bft)
13.03.2014 22:45 1,0 C 83 % 1026,6 hPa 0,0 l/m 0,0 km/h (0 Bft) SW 225 -1,6 C 16,1 C 0,0 km/h (0 Bft)
13.03.2014 22:50 1,1 C 83 % 1026,6 hPa 0,0 l/m 0,0 km/h (0 Bft) SW 225 -1,5 C 16,1 C 0,0 km/h (0 Bft)
13.03.2014 22:55 1,0 C 83 % 1026,6 hPa 0,0 l/m 0,0 km/h (0 Bft) SW 225 -1,6 C 16,1 C 0,0 km/h (0 Bft)
13.03.2014 23:00 0,9 C 84 % 1026,6 hPa 0,0 l/m 0,0 km/h (0 Bft) SW 225 -1,5 C 16,1 C 0,0 km/h (0 Bft)
13.03.2014 23:05 0,9 C 84 % 1026,4 hPa 0,0 l/m 0,0 km/h (0 Bft) SW 225 -1,5 C 16,1 C 0,0 km/h (0 Bft)
13.03.2014 23:10 1,0 C 84 % 1026,4 hPa 0,0 l/m 0,0 km/h (0 Bft) SW 225 -1,4 C 16,1 C 0,0 km/h (0 Bft)
13.03.2014 23:15 0,9 C 84 % 1026,4 hPa 0,0 l/m 0,0 km/h (0 Bft) SW 225 -1,5 C 16,1 C 0,0 km/h (0 Bft)
13.03.2014 23:20 0,7 C 84 % 1026,4 hPa 0,0 l/m 0,0 km/h (0 Bft) SW 225 -1,7 C 16,1 C 0,0 km/h (0 Bft)
13.03.2014 23:25 0,7 C 85 % 1026,3 hPa 0,0 l/m 0,0 km/h (0 Bft) SW 225 -1,5 C 16,1 C 0,0 km/h (0 Bft)
13.03.2014 23:30 0,8 C 85 % 1026,3 hPa 0,0 l/m 0,0 km/h (0 Bft) SW 225 -1,4 C 16,1 C 0,0 km/h (0 Bft)
13.03.2014 23:35 0,7 C 85 % 1026,3 hPa 0,0 l/m 0,0 km/h (0 Bft) SW 225 -1,5 C 16,1 C 0,0 km/h (0 Bft)
13.03.2014 23:38 0,9 C 86 % 1026,3 hPa 0,0 l/m 0,0 km/h (0 Bft) SW 225 -1,2 C 16,1 C 0,0 km/h (0 Bft)
13.03.2014 23:40 0,9 C 86 % 1026,3 hPa 0,0 l/m 0,0 km/h (0 Bft) SW 225 -1,2 C 16,1 C 0,0 km/h (0 Bft)
13.03.2014 23:45 1,1 C 86 % 1026,1 hPa 0,0 l/m 0,0 km/h (0 Bft) SW 225 -1,0 C 16,1 C 0,0 km/h (0 Bft)
13.03.2014 23:50 0,9 C 87 % 1026,1 hPa 0,0 l/m 0,0 km/h (0 Bft) SW 225 -1,0 C 16,1 C 0,0 km/h (0 Bft)
13.03.2014 23:55 0,8 C 87 % 1026,1 hPa 0,0 l/m 0,0 km/h (0 Bft) SW 225 -1,1 C 16,1 C 0,0 km/h (0 Bft)
_ Min-Zeit 06:25 14:15 05:05 - 23:55 - - 05:30 10:25 23:55
Minimum _ -3,0 C 32 % 1025,6 hPa - 0,0 km/h (0 Bft) - - -4,8 C -1,7 C 0,0 km/h (0 Bft)
_ Max-Zeit 13:38 08:25 11:45 23:55 01:45 - - 09:30 01:25 10:40
Maximum _ 18,7 C 92 % 1028,1 hPa 0,0 l/m 2,9 km/h
NO (1 Bft)
- - 5,2 C 19,2 C 6,4 km/h
SW (2 Bft)
Durchschnitt _ 6,3 C 66 % 1026,7 hPa #0,0 l/m 0,0 km/h (0 Bft) NO - -0,6 C 9,6 C 0,1 km/h (0 Bft)